TimeEST,TemperatureF,Dew PointF,Humidity,Sea Level PressureIn,VisibilityMPH,Wind Direction,Wind SpeedMPH,Gust SpeedMPH,PrecipitationIn,Events,Conditions,WindDirDegrees,DateUTC
12:53 AM,-11.0,-16.1,78,30.26,10.0,Calm,Calm,-,N/A,,Clear,0,2013-12-17 05:53:00
1:53 AM,-11.0,-16.1,78,30.27,10.0,Calm,Calm,-,N/A,,Clear,0,2013-12-17 06:53:00
2:51 AM,-11.2,-16.6,77,30.25,10.0,Calm,Calm,-,N/A,,Mostly Cloudy,0,2013-12-17 07:51:00
2:53 AM,-11.9,-16.1,82,30.27,10.0,Calm,Calm,-,N/A,,Mostly Cloudy,0,2013-12-17 07:53:00
3:19 AM,-14.8,-18.4,84,30.24,10.0,Calm,Calm,-,N/A,,Scattered Clouds,0,2013-12-17 08:19:00
3:49 AM,-11.2,-16.6,77,30.24,10.0,Calm,Calm,-,N/A,,Mostly Cloudy,0,2013-12-17 08:49:00
3:53 AM,-13.0,-17.0,82,30.26,10.0,Calm,Calm,-,N/A,,Mostly Cloudy,0,2013-12-17 08:53:00
4:53 AM,-8.0,-13.0,79,30.25,10.0,Calm,Calm,-,N/A,,Overcast,0,2013-12-17 09:53:00
5:53 AM,-6.0,-9.9,83,30.26,10.0,WNW,3.5,-,N/A,,Overcast,290,2013-12-17 10:53:00
6:32 AM,-5.8,-9.4,84,30.23,10.0,Calm,Calm,-,N/A,,Overcast,0,2013-12-17 11:32:00
6:51 AM,-5.8,-9.4,84,30.23,10.0,Calm,Calm,-,N/A,,Overcast,0,2013-12-17 11:51:00
6:53 AM,-4.0,-8.0,83,30.25,10.0,Calm,Calm,-,N/A,,Overcast,0,2013-12-17 11:53:00
7:36 AM,-5.8,-11.2,77,30.21,10.0,Calm,Calm,-,N/A,,Scattered Clouds,0,2013-12-17 12:36:00
7:53 AM,-7.1,-11.9,79,30.24,10.0,Calm,Calm,-,N/A,,Partly Cloudy,0,2013-12-17 12:53:00
8:45 AM,-5.8,-9.4,84,30.20,10.0,Calm,Calm,-,N/A,,Mostly Cloudy,0,2013-12-17 13:45:00
8:53 AM,-4.0,-8.0,83,30.22,10.0,Calm,Calm,-,N/A,,Mostly Cloudy,0,2013-12-17 13:53:00
9:10 AM,-2.2,-7.6,78,30.19,10.0,Calm,Calm,-,N/A,,Scattered Clouds,0,2013-12-17 14:10:00
9:53 AM,1.0,-2.9,83,30.20,10.0,Calm,Calm,-,N/A,,Clear,0,2013-12-17 14:53:00
10:53 AM,6.1,-0.0,76,30.16,6.0,Calm,Calm,-,0.00,Snow,Light Snow,0,2013-12-17 15:53:00
11:10 AM,6.8,1.4,79,30.12,2.5,Calm,Calm,-,0.00,Snow,Light Snow,0,2013-12-17 16:10:00
11:37 AM,8.6,3.2,79,30.11,3.0,Calm,Calm,-,0.00,Snow,Light Snow,0,2013-12-17 16:37:00
11:53 AM,10.0,5.0,80,30.13,7.0,SSE,8.1,-,0.00,,Overcast,150,2013-12-17 16:53:00
12:25 PM,10.4,3.2,73,30.09,2.0,SSE,12.7,19.6,0.00,Snow,Light Snow,150,2013-12-17 17:25:00
12:37 PM,10.4,3.2,73,30.08,6.0,South,10.4,-,0.00,Snow,Light Snow,170,2013-12-17 17:37:00
12:51 PM,10.4,5.0,79,30.07,2.0,South,10.4,-,0.00,Snow,Light Snow,170,2013-12-17 17:51:00
12:53 PM,10.9,5.0,77,30.09,1.8,South,9.2,-,0.00,Snow,Light Snow,180,2013-12-17 17:53:00
1:04 PM,10.4,5.0,79,30.06,3.0,South,8.1,-,0.00,Snow,Light Snow,180,2013-12-17 18:04:00
1:13 PM,10.4,6.8,85,30.06,3.0,South,6.9,-,0.00,Snow,Light Snow,180,2013-12-17 18:13:00
1:26 PM,10.4,6.8,85,30.05,2.5,South,8.1,-,0.00,Snow,Light Snow,190,2013-12-17 18:26:00
1:53 PM,12.0,8.1,84,30.06,2.0,South,5.8,-,0.00,Snow,Light Snow,190,2013-12-17 18:53:00
2:19 PM,12.2,8.6,85,30.03,4.0,South,5.8,-,0.00,Snow,Light Snow,190,2013-12-17 19:19:00
2:38 PM,12.2,8.6,85,30.02,7.0,South,8.1,-,0.00,,Overcast,170,2013-12-17 19:38:00
2:45 PM,14.0,8.6,79,30.02,8.0,SSE,6.9,-,0.00,Snow,Light Snow,160,2013-12-17 19:45:00
2:53 PM,14.0,9.0,80,30.04,9.0,South,6.9,-,0.00,,Overcast,180,2013-12-17 19:53:00
3:53 PM,12.0,7.0,80,30.03,6.0,WNW,3.5,-,0.00,Snow,Light Snow,290,2013-12-17 20:53:00
4:53 PM,12.0,8.1,84,30.03,5.0,Calm,Calm,-,0.00,Snow,Light Snow,0,2013-12-17 21:53:00
5:53 PM,12.9,9.0,84,30.03,7.0,Calm,Calm,-,0.00,,Overcast,0,2013-12-17 22:53:00
6:53 PM,12.9,8.1,81,30.03,10.0,West,4.6,-,N/A,,Overcast,280,2013-12-17 23:53:00
7:53 PM,10.0,7.0,87,30.03,10.0,Calm,Calm,-,N/A,,Mostly Cloudy,0,2013-12-18 00:53:00
8:53 PM,12.0,8.1,84,30.03,10.0,Calm,Calm,-,N/A,,Overcast,0,2013-12-18 01:53:00
9:53 PM,12.9,9.0,84,30.03,10.0,Calm,Calm,-,N/A,,Overcast,0,2013-12-18 02:53:00
10:53 PM,14.0,8.1,77,30.02,10.0,West,3.5,-,N/A,,Overcast,280,2013-12-18 03:53:00
11:53 PM,14.0,10.0,84,30.01,10.0,Calm,Calm,-,N/A,,Overcast,0,2013-12-18 04:53:00